Theta_e
354 353 350 345 344 344 344 345 346 347 348 348 349 348 348 350 350 350 350 349 348 346 345 344 343 343 342 342 342 341 345 344
352 354 354 353 353 343 343 344 344 345 347 346 345 346 347 348 348 349 348 348 348 347 346 346 346 345 345 344 342 342 344 342
349 350 350 351 351 350 345 345 345 344 346 345 343 350 351 351 347 346 347 345 345 345 345 343 343 342 342 342 341 345 347 346
346 349 350 351 346 352 352 352 351 351 350 352 351 352 351 348 346 345 345 343 343 343 343 341 340 345 346 341 344 346 347 347
342 347 350 350 347 349 348 348 349 349 351 350 351 349 349 347 347 346 347 343 345 343 344 345 346 346 346 348 347 348 349 349
342 344 346 348 347 346 347 346 347 348 349 350 349 347 346 346 345 346 347 348 347 346 344 344 345 345 344 347 346 347 349 349
342 344 345 345 346 345 345 346 346 346 346 346 347 344 344 344 345 346 347 346 344 343 342 340 342 344 347 343 339 339 341 343
344 344 345 344 342 343 343 346 345 344 342 344 344 345 343 344 344 343 342 342 342 342 339 338 340 340 340 338 337 335 334 332
346 344 342 342 340 342 343 342 341 339 335 334 335 336 338 339 337 338 337 339 339 339 339 340 336 332 335 334 331 330 329 326
344 339 339 340 339 338 342 335 326 323 321 323 326 329 332 332 333 334 334 335 335 336 337 336 336 332 332 327 324 323 321 321
340 337 335 336 335 328 322 320 320 320 321 320 317 322 327 330 331 331 331 331 331 330 332 330 327 327 324 320 319 318 317 316
337 334 335 328 325 321 319 319 319 321 322 318 316 321 324 325 325 325 325 324 326 327 325 327 326 325 318 311 309 310 313 312
332 331 324 323 322 321 322 318 321 318 321 317 316 317 319 319 322 320 322 321 322 326 325 322 324 324 318 309 305 305 304 305
325 322 323 324 326 328 328 319 319 318 317 313 313 314 315 317 317 317 317 318 320 322 322 320 321 323 320 316 304 303 300 301
320 319 318 318 325 325 322 319 316 315 313 313 314 315 313 311 312 313 315 315 315 317 318 318 314 320 323 318 308 306 300 299
320 319 318 319 326 327 326 324 318 319 319 318 315 311 311 311 313 312 313 314 315 316 316 316 317 315 319 320 320 317 308 295
322 321 320 322 331 332 329 323 326 325 323 319 315 316 314 314 314 315 315 314 314 314 314 313 313 313 314 315 316 315 315 308
327 324 327 331 331 331 329 326 323 321 320 318 317 317 317 316 315 316 316 315 313 314 314 312 312 311 311 312 313 311 309 309
328 329 328 330 330 329 327 325 323 321 320 320 318 318 318 318 317 317 317 315 314 314 313 311 311 309 310 310 310 311 312 310
328 328 326 328 328 327 327 325 325 324 322 323 322 322 320 318 318 317 315 314 314 314 313 312 311 311 310 310 310 310 311 311
Wind_Speed
11 13 12 8 7 7 8 9 10 10 10 10 10 10 9 9 8 8 7 8 9 8 7 7 5 4 3 2 1 5 9 3
10 11 12 12 12 7 8 9 9 8 8 8 8 8 9 8 8 8 8 7 7 8 7 6 6 5 4 3 4 8 10 5
10 11 11 11 11 10 8 7 6 7 8 6 8 9 10 11 5 12 8 8 8 7 7 7 7 8 7 6 7 8 4 6
11 11 11 10 8 10 10 10 10 10 10 11 9 7 7 5 7 7 7 6 6 7 8 7 9 7 7 9 8 4 5 5
13 11 10 10 8 8 6 6 6 5 9 9 8 5 4 6 5 7 7 8 8 10 10 9 6 5 3 4 5 5 3 3
13 10 10 10 7 6 7 6 5 6 7 8 5 4 4 4 3 2 4 3 3 4 3 3 3 2 4 2 1 3 1 3
13 12 11 9 8 6 5 7 7 6 4 4 4 4 4 4 2 3 2 2 2 3 3 3 3 1 2 4 6 5 6 6
12 12 11 10 8 8 6 6 5 3 4 4 4 2 2 4 2 1 1 2 1 2 3 1 0 4 5 6 7 7 9 10
10 9 10 10 10 7 5 5 5 5 6 7 6 4 4 3 2 1 2 2 0 1 2 2 5 6 7 7 8 8 7 11
11 10 11 10 8 6 4 7 8 7 8 8 13 4 2 2 3 2 2 2 1 1 1 2 1 4 6 6 6 8 6 9
12 12 12 11 8 9 10 10 7 6 5 6 10 15 5 3 2 3 2 2 3 2 1 1 3 5 7 7 7 6 6 7
14 10 11 11 9 10 7 7 6 6 4 6 10 3 6 4 4 2 1 2 3 3 4 2 2 6 7 7 7 6 6 6
13 10 10 9 8 7 7 6 8 5 3 7 6 6 3 4 2 1 1 2 2 3 4 5 4 7 8 6 7 7 8 6
10 10 9 6 6 7 6 5 7 6 7 7 8 6 7 7 4 1 3 3 4 5 5 5 5 8 5 6 3 2 5 5
9 10 9 7 10 9 9 8 6 5 6 7 9 10 7 5 7 5 3 2 3 3 4 7 6 8 9 6 4 4 4 2
10 10 10 8 10 11 12 8 8 5 6 5 4 2 5 6 6 5 2 2 3 2 4 6 7 8 8 8 5 3 5 4
10 11 10 11 11 9 7 6 5 6 5 7 5 4 4 4 5 5 3 3 3 4 4 5 6 8 7 7 8 5 4 3
12 12 12 10 8 7 7 7 6 7 7 7 7 6 7 6 5 3 2 2 3 4 4 5 5 6 8 9 8 7 7 6
10 11 11 10 8 8 6 5 5 4 5 4 5 4 4 6 5 3 3 4 3 3 4 5 5 5 6 7 7 9 7 7
9 9 9 8 8 7 6 5 3 3 3 2 2 1 3 5 4 4 3 3 3 3 3 4 4 4 6 6 5 6 7 8
Wind_Direction
157 167 165 151 157 161 156 157 157 160 162 161 158 159 162 158 160 153 145 138 139 142 144 146 150 144 143 136 288 302 284 236
162 166 172 177 175 158 163 161 162 170 166 166 163 159 163 167 158 161 153 152 155 156 159 160 155 165 168 199 249 256 252 236
169 167 171 178 178 163 157 160 162 161 170 164 165 194 182 163 139 142 164 169 175 176 177 181 189 193 198 207 241 246 260 253
176 170 170 172 176 160 186 178 190 195 192 183 202 205 201 201 140 163 172 180 189 200 206 211 221 230 174 199 233 296 259 272
181 174 168 181 165 175 181 184 195 200 206 197 199 190 170 206 173 185 187 190 202 195 192 218 247 285 252 240 255 249 272 271
177 176 171 189 170 186 177 186 174 200 195 196 183 196 187 211 215 184 214 217 249 244 230 251 250 259 281 248 321 5 331 55
183 180 190 186 189 174 167 198 194 193 167 182 204 207 193 185 182 221 251 260 273 260 276 243 219 289 154 134 85 61 46 56
186 186 193 171 184 181 183 189 146 149 139 166 187 190 129 197 180 201 265 288 20 299 334 268 161 60 93 109 99 85 72 80
179 176 172 188 183 180 188 167 124 90 60 12 39 51 60 12 56 27 16 45 193 227 179 168 117 85 86 78 74 68 81 86
144 145 163 182 175 170 158 72 76 68 61 37 351 12 111 120 100 92 66 88 53 243 263 172 140 138 110 76 78 78 65 79
134 155 162 162 132 95 90 96 101 100 99 94 76 312 8 66 96 102 137 132 142 105 86 29 134 103 85 73 61 69 61 75
132 154 150 120 108 106 105 104 93 94 99 108 113 193 320 55 54 88 162 164 140 148 131 100 168 122 100 75 58 45 78 66
135 137 126 133 127 126 127 119 98 96 109 103 117 140 79 48 67 105 249 209 123 173 147 168 162 140 132 94 65 57 65 73
104 114 123 119 121 123 130 153 111 148 153 148 150 160 148 135 117 298 262 195 189 190 202 191 203 193 215 152 159 132 63 57
106 107 104 103 121 123 111 107 103 160 185 172 185 159 149 145 151 139 266 260 213 222 233 225 216 208 231 225 159 210 125 104
119 126 127 135 147 141 150 172 173 198 183 166 157 141 161 174 122 134 204 263 282 225 232 254 247 222 207 235 281 98 189 163
135 137 144 162 172 175 166 157 178 144 150 148 148 163 207 126 132 140 175 206 216 255 238 240 254 260 235 218 237 223 243 153
145 154 158 160 166 161 177 158 169 167 159 167 176 173 172 155 143 142 149 241 240 230 217 232 254 270 274 259 238 220 213 223
154 165 160 164 172 177 175 183 182 175 172 177 159 161 161 155 162 156 195 212 222 238 228 246 244 235 244 257 253 260 253 236
159 169 163 176 185 189 185 190 198 219 196 188 186 186 146 138 170 191 204 223 229 233 256 274 280 263 262 252 255 247 255 251